Weather History for Midland, MI

Change the Weather History Date:

Saturday, October 26, 2013

  Actual Average (KMBS) Record (KMBS)
Temperature  
Mean Temperature 42 °F 46 °F  
Max Temperature 49 °F 55 °F 72 °F (2000)
Min Temperature 34 °F 37 °F 27 °F (2006)
Degree Days  
Heating Degree Days 23    
Month to date heating degree days  
Since 1 July heating degree days  
Cooling Degree Days 0    
Month to date cooling degree days  
Year to date cooling degree days  
Moisture  
Dew Point 36 °F    
Average Humidity 75    
Maximum Humidity 93    
Minimum Humidity 55    
Precipitation  
Precipitation 0.11 in 0.08 in 0.21 in (1997)
Month to date precipitation 2.20  
Year to date precipitation 26.55  
Snow  
Snow 0.00 in - - ()
Month to date snowfall  
Since 1 July snowfall  
Since 1 September snowfall  
Snow Depth -    
Sea Level Pressure  
Sea Level Pressure 29.80 in    
Wind  
Wind Speed 12 mph (WSW)    
Max Wind Speed 21 mph    
Max Gust Speed 29 mph    
Visibility 10 miles    
Events Rain    
T = Trace of Precipitation, MM = Missing Value Source: NWS Daily Summary

Daily Weather History Graph

Daily Weather History Graph

Search for Another Location

Airport:

Trip Planner

Search our weather history database for the weather conditions in past years. The results will help you decide how hot, cold, wet, or windy it might be!

Date:

Astronomy

Oct. 26, 2013 Rise Set
Actual Time 8:05 AM EDT 6:35 PM EDT
Civil Twilight 7:35 AM EDT 7:05 PM EDT
Nautical Twilight 7:02 AM EDT 7:38 PM EDT
Astronomical Twilight 6:28 AM EDT 8:12 PM EDT
Moon No Moon Rise 2:22 PM EDT (10/26)
Length of Visible Light 11h 29m
Length of Day
10h 30m
Waning Gibbous, 53% of the Moon is Illuminated
Oct 26
Waning Gibbous
Oct 26
Last Quarter
Nov 3
New
Nov 10
First Quarter
Nov 17
Full

Hourly Weather History & Observations

Time (EDT) Temp. Windchill Dew Point Humidity Pressure Visibility Wind Dir Wind Speed Gust Speed Precip Events Conditions
12:13 AM 43.3 °F 37.2 °F 29.1 °F 57% 29.94 in 10.0 mi SSW 11.5 mph 25.3 mph N/A   Overcast
12:34 AM 43.7 °F 37.3 °F 29.5 °F 57% 29.92 in 10.0 mi SSW 12.7 mph 17.3 mph N/A   Overcast
12:54 AM 43.7 °F 36.3 °F 29.8 °F 58% 29.91 in 10.0 mi SSW 16.1 mph 23.0 mph N/A   Overcast
1:14 AM 44.2 °F 37.3 °F 30.2 °F 58% 29.90 in 10.0 mi SSW 15.0 mph 21.9 mph N/A   Overcast
1:34 AM 44.6 °F 36.9 °F 30.6 °F 58% 29.88 in 10.0 mi SSW 18.4 mph 28.8 mph N/A   Overcast
1:54 AM 44.6 °F 38.8 °F 31.1 °F 59% 29.87 in 10.0 mi SSW 11.5 mph 20.7 mph N/A   Overcast
2:14 AM 44.8 °F 37.1 °F 31.3 °F 59% 29.86 in 10.0 mi SSW 18.4 mph 23.0 mph N/A   Overcast
2:34 AM 45.5 °F 39.2 °F 31.8 °F 59% 29.84 in 10.0 mi SSW 13.8 mph 27.6 mph N/A   Overcast
2:54 AM 45.1 °F 37.1 °F 32.2 °F 60% 29.82 in 10.0 mi SW 20.7 mph 28.8 mph N/A   Light Drizzle
3:14 AM 44.8 °F 38.3 °F 33.3 °F 64% 29.82 in 10.0 mi SW 13.8 mph 26.5 mph N/A   Light Drizzle
3:34 AM 44.6 °F 36.6 °F 34.3 °F 67% 29.81 in 10.0 mi SW 19.6 mph 25.3 mph N/A   Drizzle
3:53 AM 44.2 °F 37.0 °F 35.2 °F 71% 29.80 in 10.0 mi SW 16.1 mph 24.2 mph N/A   Drizzle
4:14 AM 43.7 °F 37.3 °F 36.1 °F 75% 29.79 in 10.0 mi SW 12.7 mph 24.2 mph N/A Rain Light Rain
4:34 AM 42.8 °F 36.2 °F 37.0 °F 80% 29.78 in 10.0 mi SSW 12.7 mph - N/A Rain Light Rain
4:53 AM 42.3 °F 35.5 °F 37.0 °F 82% 29.78 in 7.0 mi SSW 12.7 mph 19.6 mph 0.01 in Rain Light Rain
5:14 AM 41.9 °F 35.0 °F 37.2 °F 83% 29.76 in 7.0 mi SW 12.7 mph 19.6 mph 0.02 in Rain Light Rain
5:34 AM 41.9 °F 35.9 °F 37.6 °F 85% 29.76 in 10.0 mi SW 10.4 mph - 0.03 in Rain Light Rain
5:54 AM 41.9 °F 36.9 °F 38.5 °F 88% 29.76 in 7.0 mi SSW 8.1 mph - 0.04 in Rain Rain
6:14 AM 42.1 °F 35.7 °F 39.4 °F 90% 29.75 in 7.0 mi SW 11.5 mph 17.3 mph 0.01 in Rain Light Rain
6:34 AM 43.0 °F 36.0 °F 39.4 °F 87% 29.74 in 10.0 mi WSW 13.8 mph 19.6 mph 0.02 in Rain Light Rain
6:43 AM 43.3 °F 37.7 °F 39.6 °F 87% 29.75 in 10.0 mi WSW 10.4 mph 19.6 mph 0.03 in Rain Light Rain
7:12 AM 43.3 °F 36.1 °F 39.6 °F 87% 29.73 in 10.0 mi SW 15.0 mph 23.0 mph 0.02 in Rain Light Rain
7:19 AM 43.2 °F 35.9 °F 39.7 °F 88% 29.73 in 10.0 mi SW 15.0 mph 19.6 mph 0.02 in Rain Light Rain
7:39 AM 43.7 °F 37.7 °F 39.6 °F 85% 29.72 in 10.0 mi SW 11.5 mph 20.7 mph 0.02 in   Light Drizzle
8:04 AM 43.3 °F 37.7 °F 39.4 °F 86% 29.71 in 10.0 mi SW 10.4 mph 21.9 mph N/A   Overcast
8:37 AM 41.0 °F 34.3 °F 39.2 °F 93% 29.71 in 10.0 mi SSW 11.5 mph - N/A   Mostly Cloudy
9:00 AM 41.9 °F 36.3 °F 38.7 °F 88% 29.71 in 10.0 mi SSW 9.2 mph 16.1 mph N/A   Mostly Cloudy
9:29 AM 43.2 °F 37.9 °F 39.4 °F 86% 29.71 in 10.0 mi SW 9.2 mph - N/A   Mostly Cloudy
9:58 AM 44.6 °F 37.8 °F 39.2 °F 81% 29.70 in 10.0 mi SW 15.0 mph 21.9 mph N/A   Mostly Cloudy
10:13 AM 45.5 °F 39.6 °F 39.2 °F 79% 29.70 in 10.0 mi SW 12.7 mph 19.6 mph N/A   Overcast
10:16 AM 44.6 °F 38.4 °F 39.2 °F 81% 29.70 in 10.0 mi SW 12.7 mph 18.4 mph N/A   Overcast
10:34 AM 45.5 °F 39.6 °F 38.8 °F 78% 29.70 in 10.0 mi SW 12.7 mph 20.7 mph N/A   Overcast
10:53 AM 45.5 °F 39.2 °F 38.8 °F 78% 29.70 in 10.0 mi WSW 13.8 mph 20.7 mph N/A   Overcast
11:14 AM 45.5 °F 39.6 °F 39.2 °F 79% 29.70 in 10.0 mi SW 12.7 mph 18.4 mph N/A   Overcast
11:34 AM 46.4 °F 41.1 °F 39.4 °F 77% 29.70 in 10.0 mi SW 11.5 mph 16.1 mph N/A   Overcast
11:53 AM 46.6 °F - 39.6 °F 77% 29.69 in 10.0 mi SSW 13.8 mph 23.0 mph N/A   Overcast
12:14 PM 46.9 °F - 39.6 °F 76% 29.69 in 10.0 mi SW 10.4 mph - N/A   Overcast
12:33 PM 47.8 °F - 39.4 °F 72% 29.69 in 10.0 mi WSW 10.4 mph 17.3 mph N/A   Overcast
12:54 PM 49.6 °F - 40.1 °F 70% 29.70 in 10.0 mi SW 10.4 mph - N/A   Overcast
1:14 PM 49.3 °F - 40.3 °F 71% 29.70 in 10.0 mi West 9.2 mph - N/A   Overcast
1:34 PM 43.3 °F 39.9 °F 40.1 °F 88% 29.72 in 7.0 mi NW 5.8 mph 10.4 mph 0.01 in Rain Light Rain
1:54 PM 43.7 °F 40.3 °F 40.8 °F 90% 29.72 in 10.0 mi NW 5.8 mph - 0.01 in   Light Drizzle
2:13 PM 44.1 °F 39.5 °F 41.2 °F 90% 29.72 in 10.0 mi WNW 8.1 mph - N/A   Overcast
2:34 PM 45.3 °F 42.3 °F 41.5 °F 87% 29.72 in 10.0 mi WNW 5.8 mph - N/A   Mostly Cloudy
2:54 PM 47.3 °F - 42.1 °F 82% 29.72 in 10.0 mi WNW 9.2 mph - N/A   Mostly Cloudy
3:13 PM 48.0 °F - 38.7 °F 70% 29.73 in 10.0 mi WNW 10.4 mph - N/A   Mostly Cloudy
3:34 PM 48.2 °F - 37.8 °F 67% 29.75 in 10.0 mi WNW 9.2 mph - N/A   Mostly Cloudy
3:54 PM 48.0 °F - 36.1 °F 63% 29.76 in 10.0 mi NW 13.8 mph 20.7 mph N/A   Overcast
4:13 PM 48.0 °F - 34.7 °F 60% 29.77 in 10.0 mi WNW 19.6 mph 24.2 mph N/A   Mostly Cloudy
4:34 PM 47.3 °F - 33.8 °F 59% 29.78 in 10.0 mi WNW 13.8 mph 21.9 mph N/A   Scattered Clouds
4:54 PM 49.5 °F - 34.9 °F 57% 29.78 in 10.0 mi WNW 16.1 mph 25.3 mph N/A   Mostly Cloudy
5:14 PM 47.3 °F - 32.0 °F 55% 29.80 in 10.0 mi West 16.1 mph 26.5 mph N/A   Scattered Clouds
5:34 PM 46.8 °F - 32.2 °F 57% 29.81 in 10.0 mi WNW 10.4 mph 20.7 mph N/A   Clear
5:54 PM 47.3 °F - 32.9 °F 57% 29.82 in 10.0 mi West 13.8 mph 18.4 mph N/A   Scattered Clouds
6:14 PM 46.6 °F - 32.9 °F 59% 29.83 in 10.0 mi West 12.7 mph 18.4 mph N/A   Overcast
6:34 PM 45.5 °F 40.3 °F 32.7 °F 61% 29.85 in 10.0 mi West 10.4 mph 18.4 mph N/A   Mostly Cloudy
6:54 PM 44.8 °F 38.7 °F 32.0 °F 61% 29.86 in 10.0 mi WNW 12.7 mph 23.0 mph N/A   Overcast
7:14 PM 44.1 °F 39.0 °F 32.4 °F 63% 29.87 in 10.0 mi WNW 9.2 mph 16.1 mph N/A   Overcast
7:33 PM 42.8 °F 36.6 °F 32.7 °F 68% 29.88 in 10.0 mi West 11.5 mph 18.4 mph N/A   Scattered Clouds
7:54 PM 41.5 °F 36.4 °F 33.3 °F 72% 29.89 in 10.0 mi West 8.1 mph - N/A   Clear
8:14 PM 40.6 °F 36.7 °F 33.4 °F 75% 29.90 in 10.0 mi West 5.8 mph - N/A   Clear
8:33 PM 40.3 °F 35.5 °F 33.6 °F 77% 29.91 in 10.0 mi West 6.9 mph - N/A   Clear
8:54 PM 39.6 °F 34.7 °F 33.6 °F 79% 29.92 in 10.0 mi West 6.9 mph - N/A   Clear
9:14 PM 39.0 °F 34.8 °F 33.6 °F 81% 29.93 in 10.0 mi West 5.8 mph - N/A   Clear
9:33 PM 38.5 °F 34.1 °F 33.6 °F 83% 29.93 in 10.0 mi West 5.8 mph - N/A   Clear
9:54 PM 38.5 °F 33.4 °F 33.4 °F 82% 29.94 in 10.0 mi West 6.9 mph - N/A   Clear
10:14 PM 38.5 °F 35.0 °F 33.3 °F 81% 29.95 in 10.0 mi WNW 4.6 mph - N/A   Scattered Clouds
10:33 PM 37.6 °F 35.1 °F 32.7 °F 83% 29.95 in 10.0 mi West 3.5 mph - N/A   Clear
10:54 PM 36.9 °F 34.3 °F 32.4 °F 84% 29.96 in 10.0 mi West 3.5 mph - N/A   Clear
11:14 PM 36.1 °F 32.3 °F 32.0 °F 85% 29.96 in 10.0 mi West 4.6 mph - N/A   Clear
11:33 PM 35.6 °F 32.8 °F 32.0 °F 87% 29.96 in 10.0 mi West 3.5 mph - N/A   Clear
11:54 PM 34.5 °F 31.6 °F 31.6 °F 89% 29.97 in 10.0 mi West 3.5 mph - N/A   Clear